[[{"header":{"parameterUnit":"m.s-1","parameterCategory":1,"la1":30.2991,"la2":30.254,"lo1":-89.0895,"lo2":-89.0444,"dy":0.0017,"dx":0.0017,"nx":28,"ny":28,"refTime":"2023-08-07T03:00:00:Z","depth":0,"parameterNumber":2,"parameterNumberName":"U-component_of_WINDS"},"data":[0,0,0,0,0,0,0,0,0,0,0,0,0,0,0,0,0,0,0,0,0,0,0,0,0,0,0,0,0,0,0,0,0,0,0,0,0,0,0,0,0,0,0,0,0,0,0,0,0,0,0,0,0,0,0,0,0,0,5.3964,5.3965,0,5.406,5.4061,5.4062,5.3986,5.3982,5.3979,5.3976,5.4072,5.4078,5.4083,0,0,0,0,0,0,0,0,0,0,0,0,0,5.3712,5.3717,5.3964,5.3965,5.3967,5.4059,5.4061,5.4062,5.3986,5.3982,5.3978,5.3975,5.4071,5.4077,5.4084,0,0,0,0,0,0,0,0,0,0,0,0,0,5.3816,5.3719,5.3964,5.394,5.3939,5.4059,5.4061,5.4062,5.3987,5.3982,5.3977,5.3973,5.4068,5.4077,5.4085,5.4233,0,0,5.411,5.4114,0,0,0,0,0,0,0,0,5.381,5.3825,5.3942,5.3942,5.3941,5.4006,5.4007,5.412,5.3988,5.3969,5.3976,5.397,5.4054,5.4063,5.4092,5.4238,5.4242,5.4111,5.4116,5.412,5.4122,0,0,0,0,0,0,0,5.3803,5.3821,5.4002,5.3944,5.3943,5.3923,5.3932,5.4028,5.4037,5.397,5.3965,5.3977,5.4053,5.4084,5.4093,5.4244,5.4111,5.4118,5.4123,5.4127,5.4511,5.4516,0,0,0,0,0,0,5.3799,5.3815,5.3999,5.4005,5.3862,5.3931,5.3942,5.399,5.4036,5.4039,5.3981,5.3973,5.4072,5.4084,5.4097,5.4269,5.412,5.4128,5.4132,5.4506,5.4512,5.4517,0,0,0,0,0,0,5.3794,5.3816,5.3995,5.3909,5.393,5.3941,5.3995,5.3994,5.4025,5.4045,5.4045,5.4012,5.4069,5.4085,5.4199,5.4272,5.4131,5.4139,5.4499,5.4507,5.4515,5.4619,0,0,0,0,0,0,5.3787,5.3814,5.3872,5.391,5.3935,5.4097,5.4,5.4,5.404,5.4031,5.4073,5.4076,5.4066,5.4187,5.4207,5.4281,5.4145,5.4493,5.4503,5.4512,5.4609,5.4629,5.4647,0,0,0,0,0,5.3778,5.3899,5.3876,5.3898,5.4007,5.4102,5.4115,5.4102,5.4046,5.4103,5.4115,5.4074,5.4261,5.4199,5.4221,5.4299,5.4488,5.45,5.4511,5.46,5.4625,5.4646,0,0,0,0,0,0,5.3869,5.3903,5.3878,5.4015,5.4056,5.4088,5.416,5.413,5.4187,5.4175,5.4156,5.4166,5.4285,5.4304,5.4234,5.4442,5.4365,5.4382,5.4425,5.4449,5.4468,5.4459,5.4152,0,0,0,0,0,5.3905,5.398,5.4005,5.4124,5.4145,5.415,5.419,5.4176,5.4217,5.4234,5.4254,5.4295,5.4362,5.4407,5.4471,5.4612,5.4618,5.4676,5.4695,5.471,5.4724,5.4794,5.4819,5.4556,5.4556,5.4555,0,0,5.398,5.4008,5.4057,5.4142,5.4172,5.4248,5.4164,5.4249,5.4304,5.4247,5.4354,5.4371,5.4415,5.4542,5.4599,5.4561,5.4798,5.4725,5.4737,5.4742,5.4809,5.4834,5.4856,5.4564,5.4562,5.4561,0,0,5.4155,5.4185,5.4284,5.4316,5.4362,5.4363,5.4387,5.4424,5.4432,5.454,5.4498,5.4562,5.4681,5.4712,5.4744,5.4927,5.489,5.4948,5.5045,5.5115,5.5135,5.5154,5.5214,5.5237,5.4962,5.4963,5.4963,0,5.4242,5.4355,5.434,5.4426,5.4463,5.4415,5.4513,5.4544,5.4609,5.4635,5.4592,5.4735,5.4762,5.4893,5.4937,5.4967,5.499,5.4942,5.5134,5.5152,5.5169,5.5226,5.525,5.4969,5.4968,5.4968,5.4967,0,5.4457,5.4536,5.4611,5.4672,5.4719,5.4811,5.4808,5.4856,5.4838,5.4843,5.4951,5.4981,5.5048,5.5079,5.5063,5.5206,5.5181,5.5137,5.5058,5.52,5.5254,5.5276,5.4978,5.4976,5.4974,5.4973,0,0,5.4691,5.4742,5.4769,5.4795,5.4841,5.4901,5.499,5.5054,5.5094,5.514,5.5211,5.531,5.5268,5.5304,5.5291,5.5353,5.549,5.53,5.5301,5.533,5.5645,5.5674,5.5701,5.5467,5.5471,5.5474,5.5639,0,5.4864,5.5018,5.5006,5.5151,5.5221,5.5175,5.5251,5.5287,5.5294,5.5353,5.5361,5.5429,5.5372,5.5392,5.5451,5.5461,5.5552,5.5449,5.5529,5.5533,5.5516,5.5729,5.5762,5.5916,5.5661,5.5664,5.5667,0,5.5086,5.5138,5.529,5.5321,5.535,5.5419,5.5475,5.5534,5.5572,5.5572,5.5611,5.5586,5.5673,5.5595,5.5712,5.5642,5.5674,5.5684,5.5689,5.5693,5.5606,5.5735,5.5966,5.5987,5.5701,5.5698,5.5696,0,5.5235,5.5344,5.5447,5.5471,5.5512,5.5561,5.558,5.5613,5.5652,5.5701,5.5724,5.5784,5.5815,5.586,5.5851,5.5796,5.5968,5.5891,5.5968,5.5968,5.6004,5.6001,5.6239,5.6032,5.6032,5.6031,5.6031,0,5.5427,5.5521,5.5514,5.5577,5.5679,5.5664,5.5765,5.5778,5.5808,5.5871,5.5836,5.5896,5.5882,5.5941,5.5934,5.6029,5.6045,5.6045,5.6042,5.6046,5.6046,5.6064,5.6052,5.6037,5.6036,5.6035,5.6034,0,5.561,5.561,5.5719,5.5748,5.5757,5.5831,5.5855,5.5913,5.5917,5.5997,5.6015,5.602,5.6087,5.6083,5.616,5.6155,5.6271,5.6257,5.6258,5.6253,5.6328,5.632,5.6583,5.6615,5.6392,5.6394,5.6396,0,5.5731,5.5801,5.5837,5.5877,5.5899,5.5964,5.6002,5.5989,5.6029,5.6076,5.6128,5.6192,5.6242,5.635,5.636,5.6417,5.6402,5.649,5.641,5.6411,5.6397,5.6391,5.6396,5.6505,5.6507,5.6509,5.6511,0,5.5943,5.5938,5.5995,5.6051,5.6098,5.6141,5.6181,5.6215,5.6206,5.6253,5.6321,5.6359,5.6436,5.6498,5.6552,5.6569,5.6538,5.6537,5.6556,5.656,5.6555,5.6554,5.6296,5.653,5.6528,5.6527,5.6526,5.6525,5.6095,5.6154,5.6187,5.625,5.6278,5.6316,5.637,5.638,5.6436,5.6497,5.6486,5.6561,5.6593,5.6662,5.6685,5.6742,5.671,5.674,5.6747,5.6754,5.676,5.6549,5.6752,5.6752,5.6751,5.6751,5.675,0,5.6301,5.632,5.6378,5.6434,5.6483,5.645,5.6491,5.6533,5.66,5.6633,5.6682,5.6758,5.6817,5.6831,5.6888,5.693,5.6916,5.6945,5.694,5.6943,5.6788,5.6762,5.6955,5.6955,5.6955,5.6954,5.6954,5.6954,5.6414,5.651,5.6509,5.6617,5.6635,5.6708,5.6733,5.6766,5.6792,5.6878,5.6927,5.6936,5.696,5.7017,5.7069,5.7072,5.7092,5.7126,5.7122,5.6975,5.6955,5.6935,5.6911,5.7131,5.7132,5.7272,5.7273,5.7274]},{"header":{"parameterUnit":"m.s-1","parameterCategory":1,"la1":30.2991,"la2":30.254,"lo1":-89.0895,"lo2":-89.0444,"dy":0.0017,"dx":0.0017,"nx":28,"ny":28,"refTime":"2023-08-07T03:00:00:Z","depth":0,"parameterNumber":3,"parameterNumberName":"V-component_of_WINDS"},"data":[0,0,0,0,0,0,0,0,0,0,0,0,0,0,0,0,0,0,0,0,0,0,0,0,0,0,0,0,0,0,0,0,0,0,0,0,0,0,0,0,0,0,0,0,0,0,0,0,0,0,0,0,0,0,0,0,0,0,4.6299,4.6301,0,4.6417,4.6418,4.6419,4.6405,4.6404,4.6402,4.64,4.6515,4.6519,4.6524,0,0,0,0,0,0,0,0,0,0,0,0,0,4.6057,4.6062,4.6299,4.6301,4.6302,4.6416,4.6418,4.6419,4.6406,4.6404,4.6401,4.6399,4.6513,4.6519,4.6524,0,0,0,0,0,0,0,0,0,0,0,0,0,4.6167,4.6063,4.6299,4.6309,4.6311,4.6416,4.6418,4.642,4.6406,4.6403,4.6401,4.6398,4.6511,4.6518,4.6525,4.6626,0,0,4.6547,4.655,0,0,0,0,0,0,0,0,4.6161,4.6176,4.6306,4.6309,4.6311,4.6394,4.6375,4.6489,4.6407,4.637,4.64,4.6397,4.6476,4.6486,4.6514,4.6631,4.6636,4.6548,4.6552,4.6555,4.6557,0,0,0,0,0,0,0,4.6153,4.6171,4.6345,4.6308,4.6311,4.6306,4.6318,4.6396,4.6437,4.6373,4.6372,4.6387,4.6477,4.6507,4.6517,4.6638,4.6548,4.6554,4.6558,4.6561,4.6839,4.6842,0,0,0,0,0,0,4.6144,4.6165,4.6342,4.6349,4.6228,4.6313,4.6327,4.637,4.6436,4.6444,4.6389,4.6386,4.6496,4.6508,4.6521,4.6641,4.6555,4.6562,4.6566,4.6836,4.684,4.6843,0,0,0,0,0,0,4.6139,4.616,4.6337,4.6257,4.6279,4.632,4.6369,4.6374,4.6404,4.6449,4.6455,4.6413,4.6495,4.6511,4.6599,4.6644,4.6565,4.6572,4.6833,4.6838,4.6842,4.6883,0,0,0,0,0,0,4.6132,4.6158,4.6198,4.6258,4.6283,4.6416,4.6371,4.6378,4.6417,4.6414,4.6473,4.6479,4.6494,4.6589,4.6606,4.6653,4.6577,4.6829,4.6835,4.684,4.6877,4.6888,4.6897,0,0,0,0,0,4.6123,4.6205,4.6201,4.6222,4.6335,4.6419,4.6433,4.6449,4.6421,4.646,4.6488,4.6478,4.6637,4.6598,4.6618,4.6667,4.6826,4.6833,4.684,4.6873,4.6886,4.6897,0,0,0,0,0,0,4.6148,4.6213,4.6209,4.6312,4.636,4.6416,4.6467,4.6463,4.6518,4.6513,4.6529,4.6542,4.6631,4.6658,4.6614,4.6766,4.6727,4.6739,4.6746,4.6758,4.6768,4.6759,4.6583,0,0,0,0,0,4.6166,4.6231,4.6283,4.6369,4.6393,4.6426,4.6463,4.6471,4.6521,4.6541,4.6575,4.6622,4.6683,4.6722,4.678,4.6881,4.6892,4.6925,4.6935,4.6943,4.6952,4.7005,4.7019,4.6866,4.6866,4.6866,0,0,4.6203,4.6246,4.6286,4.6375,4.6413,4.6477,4.6443,4.6513,4.656,4.6551,4.6637,4.6664,4.6717,4.6812,4.6855,4.6837,4.6996,4.6951,4.6957,4.6962,4.7013,4.7028,4.704,4.6871,4.687,4.6869,0,0,4.6302,4.6343,4.6418,4.6457,4.6515,4.6536,4.6554,4.6611,4.6629,4.6716,4.6709,4.6764,4.6869,4.6907,4.6939,4.7051,4.7042,4.707,4.7121,4.7172,4.7184,4.7195,4.7233,4.7247,4.7079,4.7079,4.7079,0,4.634,4.6439,4.6456,4.6527,4.6565,4.6561,4.6635,4.6672,4.6746,4.6771,4.675,4.688,4.6915,4.7018,4.7045,4.7072,4.7091,4.7063,4.7182,4.7193,4.7203,4.7239,4.7253,4.7082,4.7081,4.7081,4.7081,0,4.6481,4.655,4.6603,4.6675,4.672,4.6792,4.6818,4.686,4.6864,4.6887,4.6974,4.7016,4.7082,4.7107,4.7112,4.721,4.7196,4.7178,4.7139,4.722,4.7254,4.7268,4.7086,4.7085,4.7084,4.7083,0,0,4.66,4.6681,4.67,4.6732,4.6796,4.6848,4.6918,4.6984,4.7019,4.707,4.7128,4.7216,4.7199,4.7236,4.7244,4.729,4.7373,4.7266,4.7267,4.7283,4.7481,4.7493,4.7509,4.7368,4.7371,4.7373,4.7476,0,4.6704,4.6832,4.6849,4.6961,4.7022,4.7018,4.708,4.7124,4.7147,4.72,4.7224,4.7286,4.726,4.7282,4.7327,4.7354,4.7413,4.7347,4.742,4.7422,4.7405,4.7528,4.7541,4.7636,4.749,4.7492,4.7494,0,4.6844,4.6899,4.7017,4.7071,4.7097,4.7153,4.7213,4.7266,4.7315,4.7328,4.7369,4.7371,4.7441,4.74,4.7496,4.745,4.7481,4.7498,4.7502,4.7509,4.7462,4.7535,4.7667,4.7681,4.7515,4.7514,4.7512,0,4.6916,4.702,4.7104,4.7132,4.7197,4.7235,4.7263,4.731,4.7348,4.74,4.7424,4.7484,4.7516,4.756,4.7577,4.7546,4.7671,4.7632,4.7682,4.7681,4.7708,4.7706,4.7845,4.773,4.773,4.773,4.7729,0,4.703,4.7102,4.7137,4.7188,4.7268,4.7286,4.7363,4.739,4.7431,4.7486,4.7486,4.7536,4.7557,4.761,4.7624,4.77,4.7714,4.7725,4.7727,4.7724,4.7723,4.7744,4.7737,4.7733,4.7733,4.7732,4.7731,0,4.7124,4.7151,4.7241,4.7295,4.7311,4.7367,4.7412,4.746,4.7482,4.7551,4.7568,4.7601,4.7664,4.7686,4.7761,4.777,4.7858,4.7856,4.7842,4.7842,4.789,4.7884,4.8046,4.8067,4.794,4.7942,4.7943,0,4.7194,4.7249,4.731,4.7347,4.7377,4.7437,4.7476,4.7495,4.7535,4.7594,4.7634,4.7697,4.7748,4.7848,4.7877,4.7935,4.7932,4.7985,4.7941,4.7935,4.7931,4.7927,4.7931,4.7993,4.7994,4.7995,4.7996,0,4.7315,4.7325,4.7382,4.7443,4.749,4.7538,4.7585,4.7615,4.7641,4.7685,4.775,4.779,4.7867,4.7928,4.7986,4.8013,4.8008,4.801,4.8024,4.8021,4.801,4.8015,4.7863,4.8006,4.8005,4.8004,4.8004,4.8003,4.7398,4.7447,4.7496,4.7559,4.7596,4.764,4.7687,4.7715,4.777,4.7836,4.7843,4.7912,4.7957,4.8036,4.8065,4.8118,4.8103,4.8124,4.8129,4.8133,4.8136,4.8003,4.8128,4.8128,4.8128,4.8128,4.8128,0,4.7518,4.7549,4.7607,4.7673,4.7722,4.7715,4.7766,4.7806,4.7868,4.7911,4.7962,4.8035,4.8094,4.8128,4.8186,4.8222,4.8221,4.8236,4.8233,4.8239,4.8147,4.8128,4.8236,4.8236,4.8236,4.8236,4.8236,4.8236,4.7586,4.7666,4.7682,4.7781,4.7811,4.788,4.791,4.7949,4.7984,4.8066,4.8115,4.8138,4.8177,4.8238,4.8291,4.8299,4.832,4.8337,4.8343,4.8257,4.8245,4.8235,4.8217,4.8342,4.8342,4.843,4.8431,4.8432]}]]